TimeEST,TemperatureF,Dew PointF,Humidity,Sea Level PressureIn,VisibilityMPH,Wind Direction,Wind SpeedMPH,Gust SpeedMPH,PrecipitationIn,Events,Conditions,WindDirDegrees,DateUTC
12:56 AM,39.9,37.0,89,29.90,10.0,North,9.2,-,N/A,,Clear,350,2012-11-08 05:56:00
2:56 AM,39.0,37.0,93,29.91,10.0,NNW,11.5,-,N/A,,Clear,340,2012-11-08 07:56:00
3:56 AM,39.0,36.0,89,29.93,10.0,NW,12.7,-,N/A,,Clear,320,2012-11-08 08:56:00
4:56 AM,37.9,36.0,93,29.95,10.0,WNW,9.2,-,N/A,,Clear,290,2012-11-08 09:56:00
5:56 AM,37.9,35.1,89,29.95,10.0,NW,10.4,-,N/A,,Clear,320,2012-11-08 10:56:00
6:56 AM,37.0,36.0,96,29.98,10.0,NW,8.1,-,N/A,,Clear,320,2012-11-08 11:56:00
7:56 AM,39.9,36.0,86,30.00,10.0,NW,8.1,-,N/A,,Clear,310,2012-11-08 12:56:00
8:56 AM,43.0,36.0,76,30.01,10.0,NW,9.2,-,N/A,,Clear,320,2012-11-08 13:56:00
9:56 AM,46.0,36.0,68,30.02,10.0,NW,11.5,-,N/A,,Partly Cloudy,320,2012-11-08 14:56:00
10:56 AM,51.1,30.9,46,30.01,10.0,NW,13.8,-,N/A,,Clear,320,2012-11-08 15:56:00
11:56 AM,54.0,33.1,45,29.99,10.0,NW,11.5,-,N/A,,Clear,310,2012-11-08 16:56:00
12:56 PM,55.0,32.0,42,29.97,10.0,WNW,12.7,-,N/A,,Clear,300,2012-11-08 17:56:00
1:56 PM,55.9,32.0,40,29.97,10.0,WNW,12.7,-,N/A,,Clear,300,2012-11-08 18:56:00
2:56 PM,57.0,32.0,39,29.96,10.0,WNW,13.8,-,N/A,,Clear,300,2012-11-08 19:56:00
3:56 PM,57.0,33.1,40,29.97,10.0,WNW,13.8,-,N/A,,Clear,300,2012-11-08 20:56:00
4:56 PM,53.1,34.0,48,29.99,10.0,WNW,9.2,-,N/A,,Clear,290,2012-11-08 21:56:00
5:56 PM,48.9,35.1,59,30.01,10.0,West,5.8,-,N/A,,Clear,270,2012-11-08 22:56:00
6:56 PM,46.9,36.0,66,30.03,10.0,WNW,6.9,-,N/A,,Clear,290,2012-11-08 23:56:00
7:56 PM,46.0,32.0,58,30.04,10.0,West,3.5,-,N/A,,Clear,270,2012-11-09 00:56:00
8:56 PM,46.0,32.0,58,30.04,10.0,WNW,5.8,-,N/A,,Clear,290,2012-11-09 01:56:00
9:56 PM,45.0,32.0,60,30.05,10.0,WNW,5.8,-,N/A,,Clear,290,2012-11-09 02:56:00
10:56 PM,46.0,30.0,54,30.05,10.0,WNW,8.1,-,N/A,,Clear,290,2012-11-09 03:56:00
11:56 PM,46.9,28.9,50,30.06,10.0,NW,9.2,-,N/A,,Clear,310,2012-11-09 04:56:00